Year,Month,Day,Hour,Minute,Value (Times are PST for temperature in C)
2007,06,16,00,00,10.60
2007,06,16,00,01,10.60
2007,06,16,00,02,10.60
2007,06,16,00,03,10.60
2007,06,16,00,04,10.60
2007,06,16,00,05,10.60
2007,06,16,00,06,10.60
2007,06,16,00,07,10.60
2007,06,16,00,08,10.60
2007,06,16,00,09,10.60
2007,06,16,00,10,10.60
2007,06,16,00,11,10.70
2007,06,16,00,12,10.70
2007,06,16,00,13,10.70
2007,06,16,00,14,10.70
2007,06,16,00,15,10.70
2007,06,16,00,16,10.80
2007,06,16,00,17,10.80
2007,06,16,00,18,10.80
2007,06,16,00,19,10.90
2007,06,16,00,20,10.90
2007,06,16,00,21,10.90
2007,06,16,00,22,10.90
2007,06,16,00,23,10.90
2007,06,16,00,24,10.90
2007,06,16,00,25,10.90
2007,06,16,00,26,11.00
2007,06,16,00,27,11.10
2007,06,16,00,28,11.10
2007,06,16,00,29,11.10
2007,06,16,00,30,11.10
2007,06,16,00,31,11.10
2007,06,16,00,32,11.10
2007,06,16,00,33,11.10
2007,06,16,00,34,11.10
2007,06,16,00,35,11.00
2007,06,16,00,36,10.90
2007,06,16,00,37,10.90
2007,06,16,00,38,10.90
2007,06,16,00,39,10.90
2007,06,16,00,40,10.90
2007,06,16,00,41,10.90
2007,06,16,00,42,10.90
2007,06,16,00,43,10.90
2007,06,16,00,44,10.90
2007,06,16,00,45,10.90
2007,06,16,00,46,10.90
2007,06,16,00,47,10.90
2007,06,16,00,48,10.90
2007,06,16,00,49,10.90
2007,06,16,00,50,10.90
2007,06,16,00,51,10.90
2007,06,16,00,52,10.90
2007,06,16,00,53,10.80
2007,06,16,00,54,10.80
2007,06,16,00,55,10.80
2007,06,16,00,56,10.80
2007,06,16,00,57,10.80
2007,06,16,00,58,10.80
2007,06,16,00,59,10.80
2007,06,16,01,00,10.80
2007,06,16,01,01,10.70
2007,06,16,01,02,10.70
2007,06,16,01,03,10.70
2007,06,16,01,04,10.70
2007,06,16,01,05,10.70
2007,06,16,01,06,10.70
2007,06,16,01,07,10.70
2007,06,16,01,08,10.80
2007,06,16,01,09,10.80
2007,06,16,01,10,10.80
2007,06,16,01,11,10.80
2007,06,16,01,12,10.80
2007,06,16,01,13,10.80
2007,06,16,01,14,10.80
2007,06,16,01,15,10.80
2007,06,16,01,16,10.80
2007,06,16,01,17,10.80
2007,06,16,01,18,10.70
2007,06,16,01,19,10.70
2007,06,16,01,20,10.70
2007,06,16,01,21,10.70
2007,06,16,01,22,10.70
2007,06,16,01,23,10.70
2007,06,16,01,24,10.70
2007,06,16,01,25,10.70
2007,06,16,01,26,10.60
2007,06,16,01,27,10.60
2007,06,16,01,28,10.60
2007,06,16,01,29,10.60
2007,06,16,01,30,10.60
2007,06,16,01,31,10.60
2007,06,16,01,32,10.60
2007,06,16,01,33,10.60
2007,06,16,01,34,10.60
2007,06,16,01,35,10.60
2007,06,16,01,36,10.60
2007,06,16,01,37,10.60
2007,06,16,01,38,10.60
2007,06,16,01,39,10.60
2007,06,16,01,40,10.60
2007,06,16,01,41,10.60
2007,06,16,01,42,10.60
2007,06,16,01,43,10.60
2007,06,16,01,44,10.50
2007,06,16,01,45,10.40
2007,06,16,01,46,10.40
2007,06,16,01,47,10.40
2007,06,16,01,48,10.30
2007,06,16,01,49,10.20
2007,06,16,01,50,10.20
2007,06,16,01,51,10.20
2007,06,16,01,52,10.10
2007,06,16,01,53,10.10
2007,06,16,01,54,10.10
2007,06,16,01,55,10.10
2007,06,16,01,56,10.10
2007,06,16,01,57,10.10
2007,06,16,01,58,10.10
2007,06,16,01,59,10.10
2007,06,16,02,00,10.10
2007,06,16,02,01,10.10
2007,06,16,02,02,10.10
2007,06,16,02,03,10.10
2007,06,16,02,04,10.10
2007,06,16,02,05,10.00
2007,06,16,02,06,9.90
2007,06,16,02,07,9.90
2007,06,16,02,08,9.90
2007,06,16,02,09,9.90
2007,06,16,02,10,9.90
2007,06,16,02,11,9.90
2007,06,16,02,12,9.90
2007,06,16,02,13,9.80
2007,06,16,02,14,9.80
2007,06,16,02,15,9.80
2007,06,16,02,16,9.70
2007,06,16,02,17,9.70
2007,06,16,02,18,9.70
2007,06,16,02,19,9.70
2007,06,16,02,20,9.70
2007,06,16,02,21,9.70
2007,06,16,02,22,9.70
2007,06,16,02,23,9.70
2007,06,16,02,24,9.70
2007,06,16,02,25,9.70
2007,06,16,02,26,9.70
2007,06,16,02,27,9.70
2007,06,16,02,28,9.60
2007,06,16,02,29,9.60
2007,06,16,02,30,9.60
2007,06,16,02,31,9.60
2007,06,16,02,32,9.50
2007,06,16,02,33,9.50
2007,06,16,02,34,9.50
2007,06,16,02,35,9.50
2007,06,16,02,36,9.40
2007,06,16,02,37,9.40
2007,06,16,02,38,9.40
2007,06,16,02,39,9.40
2007,06,16,02,40,9.40
2007,06,16,02,41,9.40
2007,06,16,02,42,9.40
2007,06,16,02,43,9.30
2007,06,16,02,44,9.30
2007,06,16,02,45,9.30
2007,06,16,02,46,9.30
2007,06,16,02,47,9.20
2007,06,16,02,48,9.20
2007,06,16,02,49,9.20
2007,06,16,02,50,9.20
2007,06,16,02,51,9.20
2007,06,16,02,52,9.20
2007,06,16,02,53,9.20
2007,06,16,02,54,9.20
2007,06,16,02,55,9.20
2007,06,16,02,56,9.20
2007,06,16,02,57,9.20
2007,06,16,02,58,9.20
2007,06,16,02,59,9.20
2007,06,16,03,00,9.20
2007,06,16,03,01,9.20
2007,06,16,03,02,9.20
2007,06,16,03,03,9.20
2007,06,16,03,04,9.20
2007,06,16,03,05,9.20
2007,06,16,03,06,9.20
2007,06,16,03,07,9.20
2007,06,16,03,08,9.20
2007,06,16,03,09,9.20
2007,06,16,03,10,9.20
2007,06,16,03,11,9.20
2007,06,16,03,12,9.20
2007,06,16,03,13,9.20
2007,06,16,03,14,9.20
2007,06,16,03,15,9.10
2007,06,16,03,16,9.10
2007,06,16,03,17,9.10
2007,06,16,03,18,9.10
2007,06,16,03,19,9.00
2007,06,16,03,20,9.00
2007,06,16,03,21,9.00
2007,06,16,03,22,9.00
2007,06,16,03,23,9.00
2007,06,16,03,24,9.00
2007,06,16,03,25,8.90
2007,06,16,03,26,8.90
2007,06,16,03,27,8.90
2007,06,16,03,28,8.90
2007,06,16,03,29,8.90
2007,06,16,03,30,8.80
2007,06,16,03,31,8.80
2007,06,16,03,32,8.80
2007,06,16,03,33,8.90
2007,06,16,03,34,8.90
2007,06,16,03,35,8.90
2007,06,16,03,36,8.90
2007,06,16,03,37,8.90
2007,06,16,03,38,8.90
2007,06,16,03,39,8.90
2007,06,16,03,40,8.90
2007,06,16,03,41,8.90
2007,06,16,03,42,8.80
2007,06,16,03,43,8.80
2007,06,16,03,44,8.80
2007,06,16,03,45,8.80
2007,06,16,03,46,8.80
2007,06,16,03,47,8.80
2007,06,16,03,48,8.70
2007,06,16,03,49,8.70
2007,06,16,03,50,8.70
2007,06,16,03,51,8.70
2007,06,16,03,52,8.70
2007,06,16,03,53,8.70
2007,06,16,03,54,8.70
2007,06,16,03,55,8.70
2007,06,16,03,56,8.70
2007,06,16,03,57,8.70
2007,06,16,03,58,8.60
2007,06,16,03,59,8.60
2007,06,16,04,00,8.60
2007,06,16,04,01,8.60
2007,06,16,04,02,8.60
2007,06,16,04,03,8.60
2007,06,16,04,04,8.60
2007,06,16,04,05,8.70
2007,06,16,04,06,8.70
2007,06,16,04,07,8.70
2007,06,16,04,08,8.70
2007,06,16,04,09,8.70
2007,06,16,04,10,8.70
2007,06,16,04,11,8.70
2007,06,16,04,12,8.70
2007,06,16,04,13,8.80
2007,06,16,04,14,8.80
2007,06,16,04,15,8.80
2007,06,16,04,16,8.80
2007,06,16,04,17,8.90
2007,06,16,04,18,8.90
2007,06,16,04,19,8.90
2007,06,16,04,20,8.90
2007,06,16,04,21,8.90
2007,06,16,04,22,8.90
2007,06,16,04,23,8.90
2007,06,16,04,24,8.90
2007,06,16,04,25,8.90
2007,06,16,04,26,8.90
2007,06,16,04,27,8.90
2007,06,16,04,28,8.90
2007,06,16,04,29,8.80
2007,06,16,04,30,8.80
2007,06,16,04,31,8.80
2007,06,16,04,32,8.70
2007,06,16,04,33,8.70
2007,06,16,04,34,8.70
2007,06,16,04,35,8.70
2007,06,16,04,36,8.70
2007,06,16,04,37,8.70
2007,06,16,04,38,8.70
2007,06,16,04,39,8.60
2007,06,16,04,40,8.50
2007,06,16,04,41,8.50
2007,06,16,04,42,8.40
2007,06,16,04,43,8.40
2007,06,16,04,44,8.40
2007,06,16,04,45,8.40
2007,06,16,04,46,8.30
2007,06,16,04,47,8.30
2007,06,16,04,48,8.30
2007,06,16,04,49,8.30
2007,06,16,04,50,8.30
2007,06,16,04,51,8.20
2007,06,16,04,52,8.20
2007,06,16,04,53,8.20
2007,06,16,04,54,8.20
2007,06,16,04,55,8.20
2007,06,16,04,56,8.20
2007,06,16,04,57,8.20
2007,06,16,04,58,8.30
2007,06,16,04,59,8.30
2007,06,16,05,00,8.40
2007,06,16,05,01,8.40
2007,06,16,05,02,8.60
2007,06,16,05,03,8.80
2007,06,16,05,04,8.90
2007,06,16,05,05,9.00
2007,06,16,05,06,9.20
2007,06,16,05,07,9.30
2007,06,16,05,08,9.40
2007,06,16,05,09,9.50
2007,06,16,05,10,9.60
2007,06,16,05,11,9.70
2007,06,16,05,12,9.70
2007,06,16,05,13,9.70
2007,06,16,05,14,9.80
2007,06,16,05,15,9.90
2007,06,16,05,16,9.90
2007,06,16,05,17,10.00
2007,06,16,05,18,10.10
2007,06,16,05,19,10.10
2007,06,16,05,20,10.10
2007,06,16,05,21,10.20
2007,06,16,05,22,10.20
2007,06,16,05,23,10.20
2007,06,16,05,24,10.20
2007,06,16,05,25,10.30
2007,06,16,05,26,10.30
2007,06,16,05,27,10.30
2007,06,16,05,28,10.30
2007,06,16,05,29,10.30
2007,06,16,05,30,10.30
2007,06,16,05,31,10.30
2007,06,16,05,32,10.30
2007,06,16,05,33,10.40
2007,06,16,05,34,10.40
2007,06,16,05,35,10.40
2007,06,16,05,36,10.40
2007,06,16,05,37,10.40
2007,06,16,05,38,10.40
2007,06,16,05,39,10.40
2007,06,16,05,40,10.50
2007,06,16,05,41,10.60
2007,06,16,05,42,10.60
2007,06,16,05,43,10.60
2007,06,16,05,44,10.60
2007,06,16,05,45,10.60
2007,06,16,05,46,10.60
2007,06,16,05,47,10.60
2007,06,16,05,48,10.60
2007,06,16,05,49,10.60
2007,06,16,05,50,10.60
2007,06,16,05,51,10.60
2007,06,16,05,52,10.60
2007,06,16,05,53,10.60
2007,06,16,05,54,10.60
2007,06,16,05,55,10.60
2007,06,16,05,56,10.60
2007,06,16,05,57,10.60
2007,06,16,05,58,10.60
2007,06,16,05,59,10.60
2007,06,16,06,00,10.60
2007,06,16,06,01,10.60
2007,06,16,06,02,10.70
2007,06,16,06,03,10.70
2007,06,16,06,04,10.70
2007,06,16,06,05,10.70
2007,06,16,06,06,10.70
2007,06,16,06,07,10.70
2007,06,16,06,08,10.70
2007,06,16,06,09,10.70
2007,06,16,06,10,10.70
2007,06,16,06,11,10.70
2007,06,16,06,12,10.70
2007,06,16,06,13,10.70
2007,06,16,06,14,10.80
2007,06,16,06,15,10.80
2007,06,16,06,16,10.80
2007,06,16,06,17,10.90
2007,06,16,06,18,10.90
2007,06,16,06,19,10.90
2007,06,16,06,20,10.90
2007,06,16,06,21,10.90
2007,06,16,06,22,10.90
2007,06,16,06,23,11.00
2007,06,16,06,24,11.10
2007,06,16,06,25,11.10
2007,06,16,06,26,11.10
2007,06,16,06,27,11.10
2007,06,16,06,28,11.10
2007,06,16,06,29,11.10
2007,06,16,06,30,11.10
2007,06,16,06,31,11.20
2007,06,16,06,32,11.20
2007,06,16,06,33,11.20
2007,06,16,06,34,11.20
2007,06,16,06,35,11.30
2007,06,16,06,36,11.30
2007,06,16,06,37,11.30
2007,06,16,06,38,11.30
2007,06,16,06,39,11.30
2007,06,16,06,40,11.40
2007,06,16,06,41,11.40
2007,06,16,06,42,11.40
2007,06,16,06,43,11.40
2007,06,16,06,44,11.40
2007,06,16,06,45,11.40
2007,06,16,06,46,11.40
2007,06,16,06,47,11.50
2007,06,16,06,48,11.60
2007,06,16,06,49,11.60
2007,06,16,06,50,11.60
2007,06,16,06,51,11.60
2007,06,16,06,52,11.70
2007,06,16,06,53,11.70
2007,06,16,06,54,11.80
2007,06,16,06,55,11.80
2007,06,16,06,56,11.80
2007,06,16,06,57,11.90
2007,06,16,06,58,11.90
2007,06,16,06,59,11.90
2007,06,16,07,00,12.00
2007,06,16,07,01,12.00
2007,06,16,07,02,12.10
2007,06,16,07,03,12.10
2007,06,16,07,04,12.10
2007,06,16,07,05,12.20
2007,06,16,07,06,12.20
2007,06,16,07,07,12.20
2007,06,16,07,08,12.30
2007,06,16,07,09,12.30
2007,06,16,07,10,12.30
2007,06,16,07,11,12.30
2007,06,16,07,12,12.30
2007,06,16,07,13,12.30
2007,06,16,07,14,12.30
2007,06,16,07,15,12.30
2007,06,16,07,16,12.30
2007,06,16,07,17,12.30
2007,06,16,07,18,12.30
2007,06,16,07,19,12.30
2007,06,16,07,20,12.30
2007,06,16,07,21,12.30
2007,06,16,07,22,12.30
2007,06,16,07,23,12.30
2007,06,16,07,24,12.30
2007,06,16,07,25,12.30
2007,06,16,07,26,12.30
2007,06,16,07,27,12.30
2007,06,16,07,28,12.30
2007,06,16,07,29,12.30
2007,06,16,07,30,12.30
2007,06,16,07,31,12.30
2007,06,16,07,32,12.30
2007,06,16,07,33,12.30
2007,06,16,07,34,12.30
2007,06,16,07,35,12.40
2007,06,16,07,36,12.40
2007,06,16,07,37,12.50
2007,06,16,07,38,12.50
2007,06,16,07,39,12.50
2007,06,16,07,40,12.60
2007,06,16,07,41,12.60
2007,06,16,07,42,12.60
2007,06,16,07,43,12.60
2007,06,16,07,44,12.60
2007,06,16,07,45,12.70
2007,06,16,07,46,12.70
2007,06,16,07,47,12.70
2007,06,16,07,48,12.70
2007,06,16,07,49,12.70
2007,06,16,07,50,12.80
2007,06,16,07,51,12.80
2007,06,16,07,52,12.80
2007,06,16,07,53,12.80
2007,06,16,07,54,12.80
2007,06,16,07,55,12.80
2007,06,16,07,56,12.90
2007,06,16,07,57,12.90
2007,06,16,07,58,12.90
2007,06,16,07,59,12.90
2007,06,16,08,00,13.00
2007,06,16,08,01,13.00
2007,06,16,08,02,13.00
2007,06,16,08,03,13.00
2007,06,16,08,04,13.00
2007,06,16,08,05,13.00
2007,06,16,08,06,13.10
2007,06,16,08,07,13.10
2007,06,16,08,08,13.10
2007,06,16,08,09,13.10
2007,06,16,08,10,13.20
2007,06,16,08,11,13.20
2007,06,16,08,12,13.20
2007,06,16,08,13,13.20
2007,06,16,08,14,13.20
2007,06,16,08,15,13.20
2007,06,16,08,16,13.20
2007,06,16,08,17,13.20
2007,06,16,08,18,13.20
2007,06,16,08,19,13.20
2007,06,16,08,20,13.30
2007,06,16,08,21,13.30
2007,06,16,08,22,13.30
2007,06,16,08,23,13.30
2007,06,16,08,24,13.30
2007,06,16,08,25,13.30
2007,06,16,08,26,13.40
2007,06,16,08,27,13.40
2007,06,16,08,28,13.40
2007,06,16,08,29,13.50
2007,06,16,08,30,13.50
2007,06,16,08,31,13.50
2007,06,16,08,32,13.50
2007,06,16,08,33,13.50
2007,06,16,08,34,13.60
2007,06,16,08,35,13.60
2007,06,16,08,36,13.60
2007,06,16,08,37,13.60
2007,06,16,08,38,13.60
2007,06,16,08,39,13.70
2007,06,16,08,40,13.70
2007,06,16,08,41,13.70
2007,06,16,08,42,13.70
2007,06,16,08,43,13.70
2007,06,16,08,44,13.80
2007,06,16,08,45,13.80
2007,06,16,08,46,13.80
2007,06,16,08,47,13.90
2007,06,16,08,48,13.90
2007,06,16,08,49,13.90
2007,06,16,08,50,14.00
2007,06,16,08,51,14.00
2007,06,16,08,52,14.00
2007,06,16,08,53,14.10
2007,06,16,08,54,14.10
2007,06,16,08,55,14.20
2007,06,16,08,56,14.20
2007,06,16,08,57,14.20
2007,06,16,08,58,14.20
2007,06,16,08,59,14.30
2007,06,16,09,00,14.40
2007,06,16,09,01,14.40
2007,06,16,09,02,14.50
2007,06,16,09,03,14.50
2007,06,16,09,04,14.60
2007,06,16,09,05,14.60
2007,06,16,09,06,14.60
2007,06,16,09,07,14.70
2007,06,16,09,08,14.70
2007,06,16,09,09,14.70
2007,06,16,09,10,14.70
2007,06,16,09,11,14.70
2007,06,16,09,12,14.70
2007,06,16,09,13,14.80
2007,06,16,09,14,14.80
2007,06,16,09,15,14.80
2007,06,16,09,16,14.80
2007,06,16,09,17,14.80
2007,06,16,09,18,14.80
2007,06,16,09,19,14.80
2007,06,16,09,20,14.80
2007,06,16,09,21,14.80
2007,06,16,09,22,14.80
2007,06,16,09,23,14.90
2007,06,16,09,24,14.90
2007,06,16,09,25,14.90
2007,06,16,09,26,14.90
2007,06,16,09,27,14.90
2007,06,16,09,28,15.00
2007,06,16,09,29,15.00
2007,06,16,09,30,15.10
2007,06,16,09,31,15.10
2007,06,16,09,32,15.10
2007,06,16,09,33,15.10
2007,06,16,09,34,15.20
2007,06,16,09,35,15.20
2007,06,16,09,36,15.20
2007,06,16,09,37,15.20
2007,06,16,09,38,15.30
2007,06,16,09,39,15.20
2007,06,16,09,40,15.20
2007,06,16,09,41,15.20
2007,06,16,09,42,15.20
2007,06,16,09,43,15.20
2007,06,16,09,44,15.20
2007,06,16,09,45,15.20
2007,06,16,09,46,15.20
2007,06,16,09,47,15.20
2007,06,16,09,48,15.20
2007,06,16,09,49,15.20
2007,06,16,09,50,15.20
2007,06,16,09,51,15.30
2007,06,16,09,52,15.30
2007,06,16,09,53,15.30
2007,06,16,09,54,15.30
2007,06,16,09,55,15.30
2007,06,16,09,56,15.30
2007,06,16,09,57,15.30
2007,06,16,09,58,15.30
2007,06,16,09,59,15.30
2007,06,16,10,00,15.30
2007,06,16,10,01,15.30
2007,06,16,10,02,15.30
2007,06,16,10,03,15.30
2007,06,16,10,04,15.30
2007,06,16,10,05,15.40
2007,06,16,10,06,15.40
2007,06,16,10,07,15.40
2007,06,16,10,08,15.50
2007,06,16,10,09,15.50
2007,06,16,10,10,15.50
2007,06,16,10,11,15.50
2007,06,16,10,12,15.50
2007,06,16,10,13,15.60
2007,06,16,10,14,15.60
2007,06,16,10,15,15.60
2007,06,16,10,16,15.60
2007,06,16,10,17,15.60
2007,06,16,10,18,15.60
2007,06,16,10,19,15.60
2007,06,16,10,20,15.70
2007,06,16,10,21,15.70
2007,06,16,10,22,15.70
2007,06,16,10,23,15.80
2007,06,16,10,24,15.80
2007,06,16,10,25,15.80
2007,06,16,10,26,15.80
2007,06,16,10,27,15.80
2007,06,16,10,28,15.80
2007,06,16,10,29,15.80
2007,06,16,10,30,15.80
2007,06,16,10,31,15.80
2007,06,16,10,32,15.80
2007,06,16,10,33,15.80
2007,06,16,10,34,15.80
2007,06,16,10,35,15.80
2007,06,16,10,36,15.80
2007,06,16,10,37,15.80
2007,06,16,10,38,15.80
2007,06,16,10,39,15.80
2007,06,16,10,40,15.90
2007,06,16,10,41,16.10
2007,06,16,10,42,16.20
2007,06,16,10,43,16.30
2007,06,16,10,44,16.40
2007,06,16,10,45,16.40
2007,06,16,10,46,16.40
2007,06,16,10,47,16.50
2007,06,16,10,48,16.60
2007,06,16,10,49,16.70
2007,06,16,10,50,16.70
2007,06,16,10,51,16.60
2007,06,16,10,52,16.60
2007,06,16,10,53,16.50
2007,06,16,10,54,16.40
2007,06,16,10,55,16.40
2007,06,16,10,56,16.50
2007,06,16,10,57,16.60
2007,06,16,10,58,16.60
2007,06,16,10,59,16.60
2007,06,16,11,00,16.70
2007,06,16,11,01,16.80
2007,06,16,11,02,16.90
2007,06,16,11,03,17.00
2007,06,16,11,04,17.10
2007,06,16,11,05,17.20
2007,06,16,11,06,17.20
2007,06,16,11,07,17.10
2007,06,16,11,08,17.00
2007,06,16,11,09,17.00
2007,06,16,11,10,16.90
2007,06,16,11,11,16.80
2007,06,16,11,12,16.80
2007,06,16,11,13,16.70
2007,06,16,11,14,16.60
2007,06,16,11,15,16.50
2007,06,16,11,16,16.40
2007,06,16,11,17,16.40
2007,06,16,11,18,16.30
2007,06,16,11,19,16.30
2007,06,16,11,20,16.30
2007,06,16,11,21,16.30
2007,06,16,11,22,16.40
2007,06,16,11,23,16.40
2007,06,16,11,24,16.40
2007,06,16,11,25,16.40
2007,06,16,11,26,16.40
2007,06,16,11,27,16.40
2007,06,16,11,28,16.40
2007,06,16,11,29,16.50
2007,06,16,11,30,16.60
2007,06,16,11,31,16.70
2007,06,16,11,32,16.70
2007,06,16,11,33,16.70
2007,06,16,11,34,16.80
2007,06,16,11,35,16.90
2007,06,16,11,36,16.90
2007,06,16,11,37,17.00
2007,06,16,11,38,17.10
2007,06,16,11,39,17.20
2007,06,16,11,40,17.30
2007,06,16,11,41,17.30
2007,06,16,11,42,17.40
2007,06,16,11,43,17.50
2007,06,16,11,44,17.70
2007,06,16,11,45,17.80
2007,06,16,11,46,18.00
2007,06,16,11,47,18.10
2007,06,16,11,48,18.10
2007,06,16,11,49,18.20
2007,06,16,11,50,18.30
2007,06,16,11,51,18.40
2007,06,16,11,52,18.40
2007,06,16,11,53,18.20
2007,06,16,11,54,18.10
2007,06,16,11,55,17.90
2007,06,16,11,56,17.80
2007,06,16,11,57,17.80
2007,06,16,11,58,17.80
2007,06,16,11,59,17.80
2007,06,16,12,00,17.80
2007,06,16,12,01,17.90
2007,06,16,12,02,17.90
2007,06,16,12,03,18.00
2007,06,16,12,04,18.20
2007,06,16,12,05,18.10
2007,06,16,12,06,18.00
2007,06,16,12,07,17.90
2007,06,16,12,08,17.90
2007,06,16,12,09,18.10
2007,06,16,12,10,18.10
2007,06,16,12,11,18.20
2007,06,16,12,12,18.20
2007,06,16,12,13,18.20
2007,06,16,12,14,18.20
2007,06,16,12,15,18.20
2007,06,16,12,16,18.20
2007,06,16,12,17,18.20
2007,06,16,12,18,18.20
2007,06,16,12,19,18.20
2007,06,16,12,20,18.20
2007,06,16,12,21,18.20
2007,06,16,12,22,18.20
2007,06,16,12,23,18.20
2007,06,16,12,24,18.30
2007,06,16,12,25,18.30
2007,06,16,12,26,18.40
2007,06,16,12,27,18.40
2007,06,16,12,28,18.50
2007,06,16,12,29,18.60
2007,06,16,12,30,18.60
2007,06,16,12,31,18.60
2007,06,16,12,32,18.60
2007,06,16,12,33,18.60
2007,06,16,12,34,18.50
2007,06,16,12,35,18.50
2007,06,16,12,36,18.50
2007,06,16,12,37,18.50
2007,06,16,12,38,18.50
2007,06,16,12,39,18.60
2007,06,16,12,40,18.60
2007,06,16,12,41,18.60
2007,06,16,12,42,18.60
2007,06,16,12,43,18.60
2007,06,16,12,44,18.70
2007,06,16,12,45,18.60
2007,06,16,12,46,18.60
2007,06,16,12,47,18.60
2007,06,16,12,48,18.70
2007,06,16,12,49,18.80
2007,06,16,12,50,18.80
2007,06,16,12,51,18.90
2007,06,16,12,52,18.90
2007,06,16,12,53,19.10
2007,06,16,12,54,19.10
2007,06,16,12,55,19.10
2007,06,16,12,56,19.10
2007,06,16,12,57,19.10
2007,06,16,12,58,19.20
2007,06,16,12,59,19.10
2007,06,16,13,00,19.10
2007,06,16,13,01,19.00
2007,06,16,13,02,18.90
2007,06,16,13,03,18.70
2007,06,16,13,04,18.60
2007,06,16,13,05,18.50
2007,06,16,13,06,18.50
2007,06,16,13,07,18.50
2007,06,16,13,08,18.50
2007,06,16,13,09,18.50
2007,06,16,13,10,18.50
2007,06,16,13,11,18.50
2007,06,16,13,12,18.50
2007,06,16,13,13,18.50
2007,06,16,13,14,18.50
2007,06,16,13,15,18.50
2007,06,16,13,16,18.50
2007,06,16,13,17,18.50
2007,06,16,13,18,18.40
2007,06,16,13,19,18.50
2007,06,16,13,20,18.50
2007,06,16,13,21,18.40
2007,06,16,13,22,18.40
2007,06,16,13,23,18.40
2007,06,16,13,24,18.30
2007,06,16,13,25,18.30
2007,06,16,13,26,18.30
2007,06,16,13,27,18.20
2007,06,16,13,28,18.20
2007,06,16,13,29,18.10
2007,06,16,13,30,18.00
2007,06,16,13,31,17.90
2007,06,16,13,32,17.90
2007,06,16,13,33,17.90
2007,06,16,13,34,17.80
2007,06,16,13,35,17.80
2007,06,16,13,36,17.70
2007,06,16,13,37,17.60
2007,06,16,13,38,17.40
2007,06,16,13,39,17.30
2007,06,16,13,40,17.00
2007,06,16,13,41,16.80
2007,06,16,13,42,16.70
2007,06,16,13,43,16.50
2007,06,16,13,44,16.40
2007,06,16,13,45,16.40
2007,06,16,13,46,16.30
2007,06,16,13,47,16.20
2007,06,16,13,48,16.20
2007,06,16,13,49,16.20
2007,06,16,13,50,16.10
2007,06,16,13,51,16.10
2007,06,16,13,52,16.10
2007,06,16,13,53,16.10
2007,06,16,13,54,16.10
2007,06,16,13,55,16.20
2007,06,16,13,56,16.20
2007,06,16,13,57,16.20
2007,06,16,13,58,16.20
2007,06,16,13,59,16.20
2007,06,16,14,00,16.30
2007,06,16,14,01,16.30
2007,06,16,14,02,16.30
2007,06,16,14,03,16.30
2007,06,16,14,04,16.30
2007,06,16,14,05,16.30
2007,06,16,14,06,16.30
2007,06,16,14,07,16.30
2007,06,16,14,08,16.30
2007,06,16,14,09,16.30
2007,06,16,14,10,16.30
2007,06,16,14,11,16.30
2007,06,16,14,12,16.30
2007,06,16,14,13,16.30
2007,06,16,14,14,16.30
2007,06,16,14,15,16.30
2007,06,16,14,16,16.30
2007,06,16,14,17,16.30
2007,06,16,14,18,16.30
2007,06,16,14,19,16.30
2007,06,16,14,20,16.30
2007,06,16,14,21,16.30
2007,06,16,14,22,16.30
2007,06,16,14,23,16.40
2007,06,16,14,24,16.40
2007,06,16,14,25,16.40
2007,06,16,14,26,16.40
2007,06,16,14,27,16.40
2007,06,16,14,28,16.40
2007,06,16,14,29,16.50
2007,06,16,14,30,16.60
2007,06,16,14,31,16.60
2007,06,16,14,32,16.60
2007,06,16,14,33,16.60
2007,06,16,14,34,16.60
2007,06,16,14,35,16.60
2007,06,16,14,36,16.60
2007,06,16,14,37,16.70
2007,06,16,14,38,16.70
2007,06,16,14,39,16.70
2007,06,16,14,40,16.80
2007,06,16,14,41,16.80
2007,06,16,14,42,16.80
2007,06,16,14,43,16.80
2007,06,16,14,44,16.80
2007,06,16,14,45,16.80
2007,06,16,14,46,16.70
2007,06,16,14,47,16.70
2007,06,16,14,48,16.70
2007,06,16,14,49,16.80
2007,06,16,14,50,16.80
2007,06,16,14,51,16.90
2007,06,16,14,52,16.90
2007,06,16,14,53,16.90
2007,06,16,14,54,17.00
2007,06,16,14,55,17.00
2007,06,16,14,56,17.00
2007,06,16,14,57,17.00
2007,06,16,14,58,17.10
2007,06,16,14,59,17.10
2007,06,16,15,00,17.10
2007,06,16,15,01,17.10
2007,06,16,15,02,17.10
2007,06,16,15,03,17.10
2007,06,16,15,04,17.10
2007,06,16,15,05,17.10
2007,06,16,15,06,17.20
2007,06,16,15,07,17.30
2007,06,16,15,08,17.30
2007,06,16,15,09,17.40
2007,06,16,15,10,17.50
2007,06,16,15,11,17.50
2007,06,16,15,12,17.60
2007,06,16,15,13,17.60
2007,06,16,15,14,17.60
2007,06,16,15,15,17.70
2007,06,16,15,16,17.80
2007,06,16,15,17,17.90
2007,06,16,15,18,17.90
2007,06,16,15,19,17.90
2007,06,16,15,20,18.00
2007,06,16,15,21,18.10
2007,06,16,15,22,18.10
2007,06,16,15,23,18.20
2007,06,16,15,24,18.40
2007,06,16,15,25,18.50
2007,06,16,15,26,18.60
2007,06,16,15,27,18.70
2007,06,16,15,28,18.70
2007,06,16,15,29,18.70
2007,06,16,15,30,18.70
2007,06,16,15,31,18.70
2007,06,16,15,32,18.70
2007,06,16,15,33,18.80
2007,06,16,15,34,18.90
2007,06,16,15,35,18.90
2007,06,16,15,36,18.80
2007,06,16,15,37,18.70
2007,06,16,15,38,18.60
2007,06,16,15,39,18.50
2007,06,16,15,40,18.40
2007,06,16,15,41,18.40
2007,06,16,15,42,18.50
2007,06,16,15,43,18.50
2007,06,16,15,44,18.60
2007,06,16,15,45,18.60
2007,06,16,15,46,18.50
2007,06,16,15,47,18.40
2007,06,16,15,48,18.30
2007,06,16,15,49,18.20
2007,06,16,15,50,18.20
2007,06,16,15,51,18.30
2007,06,16,15,52,18.50
2007,06,16,15,53,18.50
2007,06,16,15,54,18.40
2007,06,16,15,55,18.30
2007,06,16,15,56,18.10
2007,06,16,15,57,18.00
2007,06,16,15,58,17.90
2007,06,16,15,59,17.90
2007,06,16,16,00,17.90
2007,06,16,16,01,17.80
2007,06,16,16,02,17.70
2007,06,16,16,03,17.70
2007,06,16,16,04,17.60
2007,06,16,16,05,17.60
2007,06,16,16,06,17.60
2007,06,16,16,07,17.60
2007,06,16,16,08,17.70
2007,06,16,16,09,17.70
2007,06,16,16,10,17.70
2007,06,16,16,11,17.80
2007,06,16,16,12,17.80
2007,06,16,16,13,17.90
2007,06,16,16,14,17.90
2007,06,16,16,15,17.90
2007,06,16,16,16,17.90
2007,06,16,16,17,17.90
2007,06,16,16,18,17.90
2007,06,16,16,19,17.90
2007,06,16,16,20,17.90
2007,06,16,16,21,17.90
2007,06,16,16,22,18.10
2007,06,16,16,23,18.10
2007,06,16,16,24,18.10
2007,06,16,16,25,18.00
2007,06,16,16,26,17.90
2007,06,16,16,27,17.90
2007,06,16,16,28,17.80
2007,06,16,16,29,17.70
2007,06,16,16,30,17.60
2007,06,16,16,31,17.60
2007,06,16,16,32,17.60
2007,06,16,16,33,17.60
2007,06,16,16,34,17.50
2007,06,16,16,35,17.50
2007,06,16,16,36,17.40
2007,06,16,16,37,17.30
2007,06,16,16,38,17.30
2007,06,16,16,39,17.30
2007,06,16,16,40,17.20
2007,06,16,16,41,17.20
2007,06,16,16,42,17.20
2007,06,16,16,43,17.20
2007,06,16,16,44,17.20
2007,06,16,16,45,17.10
2007,06,16,16,46,17.10
2007,06,16,16,47,17.00
2007,06,16,16,48,17.00
2007,06,16,16,49,16.90
2007,06,16,16,50,16.90
2007,06,16,16,51,16.80
2007,06,16,16,52,16.70
2007,06,16,16,53,16.60
2007,06,16,16,54,16.50
2007,06,16,16,55,16.40
2007,06,16,16,56,16.40
2007,06,16,16,57,16.30
2007,06,16,16,58,16.20
2007,06,16,16,59,16.20
2007,06,16,17,00,16.10
2007,06,16,17,01,16.10
2007,06,16,17,02,16.00
2007,06,16,17,03,15.90
2007,06,16,17,04,15.90
2007,06,16,17,05,15.90
2007,06,16,17,06,15.90
2007,06,16,17,07,15.90
2007,06,16,17,08,15.90
2007,06,16,17,09,15.80
2007,06,16,17,10,15.80
2007,06,16,17,11,15.80
2007,06,16,17,12,15.80
2007,06,16,17,13,15.70
2007,06,16,17,14,15.70
2007,06,16,17,15,15.70
2007,06,16,17,16,15.70
2007,06,16,17,17,15.70
2007,06,16,17,18,15.60
2007,06,16,17,19,15.60
2007,06,16,17,20,15.60
2007,06,16,17,21,15.60
2007,06,16,17,22,15.60
2007,06,16,17,23,15.60
2007,06,16,17,24,15.60
2007,06,16,17,25,15.60
2007,06,16,17,26,15.60
2007,06,16,17,27,15.60